When you browse on this site, cookies collect data to enhance your experience and personalize the content and advertising you see.
Visit our Privacy Policy to learn more. By continuing to use the site, you agree to this use of cookies and data.
  • In Sweden
  • List of Countries
  • For 7 days
  • Water Temperature
  • Weather Map
  • Weather Widgets
  • user-avatar
    Login

    Hourly Weather Warwick

    Today, 18 January, Saturday

    Time Temperature Precipitation Wind Pressure Humidity
    00:00 +1°C° 0 mm 4 mps 759 mmHg 89%
    01:00 +1°C° 0 mm 4 mps 760 mmHg 88%
    02:00 0°C° 0 mm 4 mps 760 mmHg 88%
    03:00 0°C° 0 mm 4 mps 761 mmHg 87%
    04:00 +1°C° 0 mm 3 mps 762 mmHg 87%
    05:00 +1°C° 0 mm 3 mps 762 mmHg 87%
    06:00 0°C° 0 mm 3 mps 762 mmHg 87%
    07:00 0°C° 0 mm 3 mps 763 mmHg 87%
    08:00 0°C° 0 mm 3 mps 764 mmHg 87%
    09:00 0°C° 0 mm 3 mps 765 mmHg 87%
    10:00 +2°C° 0 mm 3 mps 765 mmHg 82%
    11:00 +3°C° 0 mm 3 mps 766 mmHg 77%
    12:00 +4°C° 0 mm 3 mps 766 mmHg 73%
    13:00 +4°C° 0 mm 3 mps 767 mmHg 75%
    14:00 +4°C° 0 mm 3 mps 767 mmHg 77%
    15:00 +5°C° 0 mm 2 mps 767 mmHg 78%
    16:00 +3°C° 0 mm 3 mps 768 mmHg 81%
    17:00 +3°C° 0 mm 3 mps 769 mmHg 84%
    18:00 +2°C° 0 mm 3 mps 769 mmHg 86%
    19:00 +2°C° 0 mm 3 mps 770 mmHg 87%
    20:00 +1°C° 0 mm 3 mps 770 mmHg 88%
    21:00 +1°C° 0 mm 3 mps 771 mmHg 89%
    22:00 +1°C° 0 mm 3 mps 772 mmHg 90%
    23:00 +1°C° 0 mm 3 mps 772 mmHg 90%

    Tomorrow, 19 January, Sunday

    Time Temperature Precipitation Wind Pressure Humidity
    00:00 0°C° 0 mm 3 mps 773 mmHg 90%
    01:00 +1°C° 0 mm 2 mps 773 mmHg 90%
    02:00 +1°C° 0 mm 2 mps 774 mmHg 91%
    03:00 +1°C° 0 mm 2 mps 774 mmHg 91%
    04:00 +1°C° 0 mm 2 mps 775 mmHg 91%
    05:00 -1°C° 0 mm 2 mps 775 mmHg 90%
    06:00 -1°C° 0 mm 2 mps 776 mmHg 90%
    07:00 +2°C° 0 mm 1 mps 776 mmHg 89%
    08:00 +2°C° 0 mm 1 mps 777 mmHg 89%
    09:00 +2°C° 0 mm 1 mps 778 mmHg 88%
    10:00 +2°C° 0 mm 2 mps 778 mmHg 83%
    11:00 +4°C° 0 mm 2 mps 778 mmHg 79%
    12:00 +5°C° 0 mm 2 mps 779 mmHg 74%
    13:00 +5°C° 0 mm 2 mps 779 mmHg 76%
    14:00 +5°C° 0 mm 2 mps 779 mmHg 78%
    15:00 +6°C° 0 mm 1 mps 779 mmHg 80%
    16:00 +5°C° 0 mm 1 mps 779 mmHg 84%
    17:00 +4°C° 0 mm 1 mps 779 mmHg 87%
    18:00 +3°C° 0 mm 1 mps 779 mmHg 90%
    19:00 +3°C° 0 mm 1 mps 780 mmHg 90%
    20:00 +2°C° 0 mm 1 mps 780 mmHg 90%
    21:00 +2°C° 0 mm 1 mps 780 mmHg 90%
    22:00 +2°C° 0 mm 1 mps 780 mmHg 89%
    23:00 +2°C° 0 mm 1 mps 781 mmHg 88%

    Day after tomorrow, 20 January, Monday

    Time Temperature Precipitation Wind Pressure Humidity
    00:00 +2°C° 0 mm 1 mps 781 mmHg 88%
    01:00 +2°C° 0 mm 1 mps 781 mmHg 87%
    02:00 +2°C° 0 mm 1 mps 780 mmHg 86%
    03:00 +2°C° 0 mm 1 mps 780 mmHg 86%
    04:00 +2°C° 0 mm 1 mps 780 mmHg 85%
    05:00 +2°C° 0 mm 1 mps 780 mmHg 83%
    06:00 +2°C° 0 mm 1 mps 780 mmHg 82%
    07:00 +2°C° 0 mm 1 mps 780 mmHg 80%
    08:00 +2°C° 0 mm 1 mps 780 mmHg 78%
    09:00 +2°C° 0 mm 1 mps 780 mmHg 76%
    10:00 +4°C° 0 mm 1 mps 780 mmHg 72%
    11:00 +5°C° 0 mm 1 mps 780 mmHg 68%
    12:00 +6°C° 0 mm 1 mps 780 mmHg 64%
    13:00 +6°C° 0 mm 1 mps 780 mmHg 67%
    14:00 +6°C° 0 mm 1 mps 779 mmHg 69%
    15:00 +6°C° 0 mm 1 mps 779 mmHg 72%
    16:00 +5°C° 0 mm 1 mps 779 mmHg 74%
    17:00 +4°C° 0 mm 1 mps 779 mmHg 77%
    18:00 +2°C° 0 mm 0 mps 779 mmHg 79%
    19:00 +2°C° 0 mm 0 mps 779 mmHg 78%
    20:00 +2°C° 0 mm 0 mps 778 mmHg 78%
    21:00 +1°C° 0 mm 0 mps 778 mmHg 77%
    22:00 +1°C° 0 mm 0 mps 778 mmHg 77%
    23:00 +1°C° 0 mm 0 mps 778 mmHg 77%

    21 January, Tuesday

    Time Temperature Precipitation Wind Pressure Humidity
    00:00 +1°C° 0 mm 0 mps 778 mmHg 77%
    01:00 +2°C° 0 mm 1 mps 778 mmHg 77%
    02:00 +2°C° 0 mm 1 mps 778 mmHg 77%
    03:00 +2°C° 0 mm 1 mps 777 mmHg 77%
    04:00 +2°C° 0 mm 1 mps 777 mmHg 77%
    05:00 +2°C° 0 mm 1 mps 777 mmHg 77%
    06:00 +2°C° 0 mm 1 mps 777 mmHg 77%
    07:00 +2°C° 0 mm 1 mps 777 mmHg 75%
    08:00 +2°C° 0 mm 1 mps 776 mmHg 74%
    09:00 +2°C° 0 mm 1 mps 776 mmHg 73%
    10:00 +4°C° 0 mm 1 mps 776 mmHg 69%
    11:00 +5°C° 0 mm 1 mps 776 mmHg 65%
    12:00 +5°C° 0 mm 2 mps 776 mmHg 61%
    13:00 +5°C° 0 mm 2 mps 776 mmHg 65%
    14:00 +5°C° 0 mm 2 mps 775 mmHg 69%
    15:00 +5°C° 0 mm 2 mps 775 mmHg 73%
    16:00 +4°C° 0 mm 2 mps 775 mmHg 79%
    17:00 +3°C° 0 mm 2 mps 775 mmHg 85%
    18:00 +2°C° 0 mm 2 mps 775 mmHg 91%
    19:00 +2°C° 0 mm 2 mps 775 mmHg 91%
    20:00 +3°C° 0 mm 1 mps 775 mmHg 92%
    21:00 +3°C° 0 mm 1 mps 775 mmHg 92%
    22:00 +2°C° 0 mm 1 mps 774 mmHg 93%
    23:00 +2°C° 0 mm 1 mps 774 mmHg 94%

    22 January, Wednesday

    Time Temperature Precipitation Wind Pressure Humidity
    00:00 +2°C° 0 mm 1 mps 774 mmHg 95%
    01:00 +1°C° 0 mm 2 mps 774 mmHg 95%
    02:00 +1°C° 0 mm 2 mps 774 mmHg 95%
    03:00 +1°C° 0 mm 2 mps 774 mmHg 96%
    04:00 +1°C° 0 mm 2 mps 773 mmHg 96%
    05:00 +1°C° 0 mm 2 mps 773 mmHg 96%
    06:00 +1°C° 0 mm 2 mps 773 mmHg 96%
    07:00 +2°C° 0 mm 2 mps 773 mmHg 97%
    08:00 +3°C° 0 mm 2 mps 773 mmHg 97%
    09:00 +3°C° 0 mm 2 mps 774 mmHg 97%
    10:00 +4°C° 0 mm 2 mps 774 mmHg 97%
    11:00 +5°C° 0 mm 2 mps 774 mmHg 96%
    12:00 +6°C° 0 mm 2 mps 774 mmHg 96%
    13:00 +6°C° 0 mm 2 mps 773 mmHg 94%
    14:00 +5°C° 0 mm 3 mps 773 mmHg 93%
    15:00 +7°C° 0 mm 3 mps 773 mmHg 92%
    16:00 +5°C° 0 mm 3 mps 772 mmHg 93%
    17:00 +4°C° 0 mm 3 mps 772 mmHg 94%
    18:00 +3°C° 0 mm 3 mps 772 mmHg 95%
    19:00 +2°C° 0 mm 3 mps 772 mmHg 95%
    20:00 +2°C° 0 mm 3 mps 772 mmHg 95%
    21:00 +2°C° 0 mm 2 mps 772 mmHg 95%
    22:00 +2°C° 0 mm 2 mps 772 mmHg 95%
    23:00 +1°C° 0 mm 2 mps 772 mmHg 95%

    23 January, Thursday

    Time Temperature Precipitation Wind Pressure Humidity
    00:00 +1°C° 0 mm 2 mps 772 mmHg 96%
    01:00 +1°C° 0 mm 2 mps 771 mmHg 95%
    02:00 -1°C° 0 mm 2 mps 771 mmHg 95%
    03:00 -1°C° 0 mm 2 mps 771 mmHg 95%
    04:00 -1°C° 0 mm 2 mps 770 mmHg 95%
    05:00 -1°C° 0 mm 2 mps 770 mmHg 96%
    06:00 -1°C° 0 mm 2 mps 770 mmHg 96%
    07:00 -1°C° 0 mm 2 mps 770 mmHg 96%
    08:00 -1°C° 0 mm 2 mps 770 mmHg 96%
    09:00 -1°C° 0 mm 2 mps 770 mmHg 96%
    10:00 +2°C° 0 mm 2 mps 770 mmHg 91%
    11:00 +2°C° 0 mm 3 mps 770 mmHg 86%
    12:00 +3°C° 0 mm 3 mps 769 mmHg 81%
    13:00 +3°C° 0 mm 3 mps 769 mmHg 82%
    14:00 +3°C° 0 mm 3 mps 768 mmHg 82%
    15:00 +3°C° 0 mm 3 mps 768 mmHg 83%
    16:00 +3°C° 0 mm 3 mps 768 mmHg 86%
    17:00 +3°C° 0 mm 2 mps 768 mmHg 89%
    18:00 +2°C° 0 mm 2 mps 768 mmHg 92%
    19:00 +1°C° 0 mm 2 mps 768 mmHg 92%
    20:00 +1°C° 0 mm 2 mps 768 mmHg 93%
    21:00 -1°C° 0 mm 2 mps 768 mmHg 94%
    22:00 -1°C° 0 mm 2 mps 768 mmHg 94%
    23:00 -1°C° 0 mm 2 mps 767 mmHg 95%
    Show more